Notices

What's New in latest Release from April 7th, 2021:

- Updated Glossary, including Speed of Maximum Gust, and Total Hourly Precipitation

- Updated national and regional climate services offices contacts and prices information

- Addition of station inventory lists for 1981-2010, 1971-2000, and 1961-1990 Normals.

If you haven't already, please take our survey and provide feedback about our website: https://eccc.sondage-survey.ca/f/LanguageSelection.aspx?s=442ca660-fcf1-47c0-95a9-59707d6fd709

Hourly Data Report for April 12, 2021

NANAIMO A
BRITISH COLUMBIA
Current Station Operator: NAVCAN

49°03'16.000" N
123°52'12.000" W
28.00 m
1025365
YCD

Download Data

Hourly Data (April 2021)
Hourly Data Report for April 12, 2021
TIME
LST
Temp Definition
°C
Dew Point Definition
°C
Rel Hum Definition
%
Precip. Amount Definition
mm

Wind Dir Definition
10's deg

Wind Spd Definition
km/h
Visibility Definition
km
Stn Press Definition
kPa
Hmdx Definition


Wind Chill Definition


Weather Definition


00:00 3.0 -2.9 65 LegendMM 29 10 LegendMM 102.50     LegendNANA
01:00 1.7 -3.9 67 LegendMM 28 6 LegendMM 102.51     LegendNANA
02:00 0.2 -3.6 75 LegendMM 6 4 LegendMM 102.50     LegendNANA
03:00 0.2 -3.1 78 LegendMM 33 2 LegendMM 102.49     LegendNANA
04:00 2.0 -2.9 70 LegendMM 30 9 LegendMM 102.49     LegendNANA
05:00 1.4 -3.3 70 LegendMM 28 8 LegendMM 102.49     LegendNANA
06:00 3.1 -2.6 66 LegendMM 31 7 LegendMM 102.55     LegendNANA
07:00 5.1 -2.1 60 LegendMM 31 13 LegendMM 102.57     LegendNANA
08:00 7.5 -1.5 53 LegendMM 32 11 LegendMM 102.54     LegendNANA
09:00 10.1 -0.2 49 LegendMM 36 23 LegendMM 102.52     LegendNANA
10:00 11.8 1.4 49 LegendMM 1 13 LegendMM 102.50     LegendNANA
11:00 12.8 -0.2 41 LegendMM 2 16 LegendMM 102.46     LegendNANA
12:00 13.4 -2.2 34 LegendMM 4 19 LegendMM 102.46     LegendNANA
13:00 13.9 -1.5 34 LegendMM 2 13 LegendMM 102.46     LegendNANA
14:00 14.3 -5.9 24 LegendMM 7 12 LegendMM 102.42     LegendNANA
15:00 14.6 -7.2 21 LegendMM 4 7 LegendMM 102.40     LegendNANA
16:00 14.7 -5.8 24 LegendMM 12 13 LegendMM 102.40     LegendNANA
17:00 14.4 -4.2 27 LegendMM 36 10 LegendMM 102.40     LegendNANA
18:00 13.2 -4.3 29 LegendMM 2 10 LegendMM 102.40     LegendNANA
19:00 10.8 -4.1 35 LegendMM 31 4 LegendMM 102.41     LegendNANA
20:00 6.5 -1.4 57 LegendMM 27 4 LegendMM 102.47     LegendNANA
21:00 6.0 -2.4 55 LegendMM 26 11 LegendMM 102.51     LegendNANA
22:00 3.8 -3.0 61 LegendMM 17 3 LegendMM 102.54     LegendNANA
23:00 3.6 -2.9 62 LegendMM 30 2 LegendMM 102.55     LegendNANA

Notes on Data Quality.

Legend

  • E = Estimated
  • M = Missing
  • NA = Not Available*
  • [empty] = Indicates an unobserved value
Date modified: